Flag for Greece Weather past 2 weeks in Iráklion, Crete, Greece

Now
72 °F

Sunny.


Feels Like: 75 °F
Forecast: 75 / 83 °F
Wind: No wind

Location: Heraklion Airport

Current Time: Aug 29, 2015 at 9:10:08 AM

Latest Report: Aug 29, 2015 at 8:20 AM


Visibility: 10 mi

Pressure: 29.98 "Hg

Humidity: 69%

Dew point: 61 °F

Location of IráklionLocation

Historic Weather in Iráklion — Graph

°F

Iráklion temperature yesterday

Maximum temperature yesterday: 82 °F (at 11:50 AM)
Minimum temperature yesterday: 72 °F (at 6:50 AM)
Average temperature yesterday: 78 °F

Past Weeks' High & Low Weather Summary

 TemperatureHumidityPressure
High95 °F (Aug 14, 3:50 PM)94% (Aug 15, 5:50 AM)30.01 "Hg (Aug 15, 5:50 AM)
Low70 °F (Aug 20, 6:50 AM)39% (Aug 14, 1:50 PM)29.77 "Hg (Aug 14, 7:20 AM)
Average80 °F70%29.87 "Hg
* Reported Aug 14 7:20 AM — Aug 29 7:50 AM, Iráklion, Weather by CustomWeather, © 2015

Note: Actual official high and low records may vary slightly from our data, if they occured in-between our weather recording intervals... More about our weather records

Advertising

Iráklion weather history for previous 24 hours

 ConditionsComfort  
Time TempWeatherWind HumidityBarometerVisibility
7:50 AM
Sat, Aug 29
72 °FSunny.No wind69%29.98 "Hg10 mi
7:20 AM70 °FPassing clouds.5 mph69%29.98 "HgN/A
6:50 AM70 °FPassing clouds.5 mph69%29.98 "HgN/A
5:50 AM70 °FClear.No wind78%29.98 "Hg10 mi
5:20 AM70 °FClear.No wind78%29.98 "Hg10 mi
4:50 AM70 °FClear.5 mph78%29.98 "Hg10 mi
4:20 AM77 °FClear.5 mph65%29.98 "Hg10 mi
3:50 AM77 °FClear.12 mph65%29.98 "Hg10 mi
3:20 AM77 °FClear.9 mph65%29.98 "Hg10 mi
2:50 AM77 °FClear.9 mph65%29.98 "Hg10 mi
2:20 AM77 °FClear.12 mph65%30.01 "Hg10 mi
1:50 AM77 °FClear.13 mph65%30.01 "Hg10 mi
1:20 AM72 °FClear.10 mph78%30.01 "Hg10 mi
12:50 AM72 °FClear.8 mph78%30.01 "Hg10 mi
11:50 PM
Fri, Aug 28
77 °FClear.10 mph74%30.01 "Hg10 mi
11:20 PM77 °FClear.12 mph69%30.01 "Hg10 mi
10:50 PM77 °FClear.15 mph69%30.01 "Hg10 mi
10:20 PM77 °FPassing clouds.14 mph69%30.01 "HgN/A
9:50 PM77 °FPassing clouds.12 mph69%30.01 "HgN/A
9:20 PM79 °FPassing clouds.9 mph70%30.01 "HgN/A
8:50 PM79 °FPassing clouds.12 mph70%30.01 "HgN/A
8:20 PM79 °FPassing clouds.13 mph70%29.98 "HgN/A
7:50 PM79 °FPassing clouds.12 mph70%29.98 "HgN/A
7:20 PM79 °FPassing clouds.12 mph70%29.98 "HgN/A
6:50 PM79 °FPassing clouds.12 mph70%29.98 "HgN/A
6:20 PM81 °FPassing clouds.13 mph66%29.98 "HgN/A
5:50 PM81 °FPassing clouds.8 mph66%29.98 "HgN/A
5:20 PM81 °FPassing clouds.8 mph70%29.98 "HgN/A
4:50 PM81 °FPassing clouds.8 mph70%29.98 "HgN/A
4:20 PM82 °FPassing clouds.9 mph66%29.98 "HgN/A
3:50 PM82 °FPassing clouds.9 mph66%29.98 "HgN/A
3:20 PM82 °FPassing clouds.12 mph66%30.01 "HgN/A
2:50 PM82 °FPassing clouds.12 mph66%30.01 "HgN/A
2:20 PM82 °FPassing clouds.18 mph62%30.01 "HgN/A
1:50 PM82 °FPassing clouds.18 mph62%30.01 "HgN/A
1:20 PM82 °FPassing clouds.18 mph62%30.01 "HgN/A
12:50 PM82 °FPassing clouds.17 mph62%30.01 "HgN/A
12:20 PM82 °FPassing clouds.17 mph66%30.01 "HgN/A
11:50 AM82 °FPassing clouds.17 mph66%30.01 "HgN/A
11:20 AM81 °FPassing clouds.18 mph66%29.98 "HgN/A
10:50 AM81 °FPassing clouds.18 mph66%29.98 "HgN/A
10:20 AM79 °FPassing clouds.15 mph65%29.98 "HgN/A
9:50 AM79 °FPassing clouds.12 mph65%29.98 "HgN/A
9:20 AM79 °FPassing clouds.8 mph65%29.98 "HgN/A
Weather by CustomWeather, © 2015

See weather overviewHow to use our weather pages